This demonstration page uses our WeatherBlox Daily Observations layout. Learn more.

Left ArrowRight Arrow

47.50024, -111.30081

Hourly Observations for April 7, 2016

Temp ( °F °C ) Dew Point ( °F °C ) Humidity (%) Winds ( mph kmh ) Pressure ( in mb ) Visibility ( mi km ) Precip ( " mm )
12:53 am 00:53 Cloudy 42 5.6 29 -1.7 60 60 WSW 9 15 30.21 1023 10 16 0.00 0.00
1:53 am 01:53 Clear 40 4.4 27 -2.8 60 60 NNW 3 6 30.24 1024 10 16 0.00 0.00
2:53 am 02:53 Mostly Cloudy 41 5 27 -2.8 57 57 NW 7 11 30.24 1024 10 16 0.00 0.00
3:53 am 03:53 Clear 35 1.7 27 -2.8 72 72 WSW 9 15 30.26 1025 10 16 0.00 0.00
4:53 am 04:53 Clear 32 0 26 -3.3 79 79 SW 10 17 30.27 1025 10 16 0.00 0.00
5:53 am 05:53 Clear 34 1.1 28 -2.2 79 79 SW 10 17 30.27 1025 10 16 0.00 0.00
6:53 am 06:53 Sunny 35 1.7 28 -2.2 76 76 SSW 10 17 30.27 1025 10 16 0.00 0.00
7:53 am 07:53 Sunny 42 5.6 31 -0.6 65 65 SW 9 15 30.27 1025 10 16 0.00 0.00
8:53 am 08:53 Sunny 48 8.9 32 0 54 54 SW 9 15 30.29 1026 10 16 0.00 0.00
9:53 am 09:53 Sunny 53 11.7 30 -1.1 41 41 WSW 6 9 30.30 1026 10 16 0.00 0.00
10:53 am 10:53 Sunny 55 12.8 28 -2.2 35 35 NW 3 6 30.28 1025 10 16 0.00 0.00
11:53 am 11:53 Sunny 57 13.9 29 -1.7 34 34 Calm 30.29 1026 10 16 0.00 0.00
12:53 pm 12:53 Sunny 58 14.4 29 -1.7 33 33 SSW 3 6 30.26 1025 10 16 0.00 0.00
1:53 pm 13:53 Sunny 60 15.6 30 -1.1 32 32 S 6 9 30.24 1024 10 16 0.00 0.00
2:53 pm 14:53 Sunny 62 16.7 28 -2.2 28 28 N 6 9 30.22 1023 10 16 0.00 0.00
3:53 pm 15:53 Sunny 63 17.2 28 -2.2 27 27 N 8 13 30.21 1023 10 16 0.00 0.00
4:53 pm 16:53 Sunny 63 17.2 28 -2.2 27 27 ESE 5 7 30.19 1023 10 16 0.00 0.00
5:53 pm 17:53 Sunny 64 17.8 27 -2.8 25 25 NNE 6 9 30.18 1022 10 16 0.00 0.00
6:53 pm 18:53 Sunny 61 16.1 29 -1.7 30 30 SE 6 9 30.18 1022 10 16 0.00 0.00
7:53 pm 19:53 Sunny 54 12.2 31 -0.6 42 42 E 9 15 30.18 1022 10 16 0.00 0.00
8:53 pm 20:53 Clear 51 10.6 29 -1.7 43 43 E 12 19 30.18 1022 10 16 0.00 0.00
9:53 pm 21:53 Clear 46 7.8 29 -1.7 51 51 E 9 15 30.18 1022 10 16 0.00 0.00
10:53 pm 22:53 Clear 44 6.7 28 -2.2 53 53 E 5 7 30.17 1022 10 16 0.00 0.00
11:53 pm 23:53 Clear 41 5 28 -2.2 60 60 Calm 30.17 1022 10 16 0.00 0.00

Powered by AerisWeather